Location: Muck Cross
(36.7179°N, 78.3678°W)
Time: 10:44:16
(UTC+00:00)

Vanguard 2 - All Passes

Search period start: 29 March 2023 00:00
Search period end: 08 April 2023 00:00
Orbit: 553 x 2927 km, 32.9° (Epoch: 28 March)

Date Brightness Start Highest point End Pass type
(mag) Time Alt. Az. Time Alt. Az. Time Alt. Az.
29 Mar - 07:20:08 10° SSW 07:34:00 34° SE 07:48:26 10° E visible
29 Mar - 09:28:07 10° SW 09:45:25 62° SSE 10:00:32 10° E visible
29 Mar - 11:39:58 10° W 11:57:44 77° S 12:10:22 10° E daylight
29 Mar - 13:53:36 10° W 14:09:01 64° SSW 14:18:39 10° ESE daylight
29 Mar - 16:08:00 10° W 16:17:44 28° SW 16:24:22 10° SSE daylight
30 Mar - 05:33:21 10° SSE 05:40:12 14° SE 05:47:32 10° ESE visible
30 Mar - 07:35:15 10° SSW 07:50:00 41° SE 08:05:26 10° E visible
30 Mar - 09:44:14 10° WSW 10:01:48 68° SSE 10:17:00 10° E visible
30 Mar - 11:56:32 10° W 12:14:14 77° S 12:26:42 10° E daylight
30 Mar - 14:10:14 10° W 14:25:12 56° SSW 14:34:39 10° SE daylight
30 Mar - 16:25:22 10° W 16:33:24 21° SW 16:39:17 10° S daylight
31 Mar - 05:46:09 10° S 05:55:55 20° SE 06:06:53 10° E visible
31 Mar - 07:50:42 10° SW 08:06:04 49° SSE 08:22:11 10° E visible
31 Mar - 10:00:29 10° WSW 10:18:14 73° SSE 10:33:25 10° E visible
31 Mar - 12:13:06 10° W 12:30:41 75° S 12:42:58 10° ESE daylight
31 Mar - 14:26:56 10° W 14:41:15 48° SSW 14:50:29 10° SE daylight
31 Mar - 16:43:32 10° W 16:48:58 15° SW 16:53:24 10° SSW daylight
01 Apr - 06:00:15 10° S 06:11:39 27° SE 06:24:52 10° E visible
01 Apr - 08:06:24 10° SW 08:22:14 57° SSE 08:38:48 10° E visible
01 Apr - 10:16:50 10° WSW 10:34:44 76° S 10:49:49 10° E visible
01 Apr - 12:29:40 10° W 12:47:05 71° SSW 12:59:10 10° ESE daylight
01 Apr - 14:43:43 10° W 14:57:10 40° SW 15:06:07 10° SSE daylight
02 Apr - 06:15:01 10° SSW 06:27:26 34° SE 06:42:13 10° E visible
02 Apr - 08:22:19 10° SW 08:38:29 64° SSE 08:55:19 10° E visible
02 Apr - 10:33:15 10° W 10:51:13 78° S 11:06:11 10° E visible
02 Apr - 12:46:15 10° W 13:03:23 65° SSW 13:15:17 10° ESE daylight
02 Apr - 15:00:40 10° W 15:12:56 32° SW 15:21:27 10° SSE daylight
03 Apr - 04:28:59 10° SSE 04:34:20 13° SE 04:40:18 10° ESE visible
03 Apr - 06:30:11 10° SSW 06:43:17 42° SE 06:59:10 10° E visible
03 Apr - 08:38:23 10° WSW 08:54:48 70° SSE 09:11:48 10° E visible
03 Apr - 10:49:44 10° W 11:07:43 77° S 11:22:32 10° ESE daylight
03 Apr - 13:02:50 10° W 13:19:33 58° SSW 13:31:14 10° SE daylight
03 Apr - 15:17:58 10° W 15:28:34 24° SW 15:36:23 10° S daylight
04 Apr - 04:41:42 10° S 04:49:54 19° SE 04:59:46 10° E visible
04 Apr - 06:45:39 10° SW 06:59:14 50° SSE 07:15:55 10° E visible
04 Apr - 08:54:35 10° WSW 09:11:12 74° S 09:28:14 10° E visible
04 Apr - 11:06:13 10° W 11:24:10 75° S 11:38:48 10° ESE daylight
04 Apr - 13:19:28 10° W 13:35:36 50° SSW 13:47:00 10° SE daylight
04 Apr - 15:35:52 10° W 15:44:07 18° SW 15:50:40 10° SSW daylight
05 Apr - 04:55:51 10° S 05:05:29 26° SE 05:17:45 10° E visible
05 Apr - 07:01:22 10° SW 07:15:18 57° SSE 07:32:31 10° E visible
05 Apr - 09:10:52 10° WSW 09:27:39 77° S 09:44:39 10° E visible
05 Apr - 11:22:43 10° W 11:40:33 71° SSW 11:54:59 10° ESE daylight
05 Apr - 13:36:12 10° W 13:51:29 42° SW 14:02:34 10° SSE daylight
05 Apr - 15:55:26 10° WSW 15:59:36 12° SW 16:03:18 10° SW daylight
06 Apr - 05:10:38 10° SSW 05:21:07 33° SE 05:35:04 10° E visible
06 Apr - 07:17:15 10° SW 07:31:28 64° SSE 07:49:04 10° E visible
06 Apr - 09:27:13 10° W 09:44:08 78° S 10:01:02 10° E visible
06 Apr - 11:39:11 10° W 11:56:50 65° SSW 12:11:03 10° ESE daylight
06 Apr - 13:53:06 10° W 14:07:16 34° SW 14:17:49 10° SSE daylight
07 Apr - 03:26:10 10° SE 03:28:49 11° SE 03:31:41 10° ESE night (unlit)
07 Apr - 05:25:49 10° SSW 05:36:52 41° SE 05:52:01 10° E visible
07 Apr - 07:33:17 10° WSW 07:47:44 70° SSE 08:05:32 10° E visible
07 Apr - 09:43:36 10° W 10:00:36 77° S 10:17:23 10° ESE visible
07 Apr - 11:55:42 10° W 12:13:01 59° SSW 12:26:58 10° SE daylight
07 Apr - 14:10:19 10° W 14:22:55 27° SW 14:32:42 10° S daylight
